ATLAS 5 CENTAUR DEB, 44667

Orbit data source: Space-Track

ATLAS 5 CENTAUR DEB, 44667 is space debris in HEO originally from a launch on Wed, 17 Oct 2018 UTC launched from the Air Force Eastern Test Range (AFETR). Debris objects in space refer to the collection of defunct objects orbiting the Earth. Examples of debris include non-operational satellites, rocket bodies, and fragments generated from explosions, collisions, or faulty payload assembly.

Loading next visibility...
Identifier
44667, 2018-079AD
Orbit
HEO
Last TLE update
3 days ago
Origin
Manufacturer
ULA Decatur
Mission
Spacecraft
Bus & Motor
Unknown
Mass
Unknown
Launch date (UTC)
2018-10-17 (7 years ago)
Launch vehicle
Unknown
Launch site
Air Force Eastern Test Range (AFETR)
Object type
Payload
Rocket body
Debris
Shape & HBR
Unknown
Radar Cross Section
RCS unknown

Expand to show TLE details & history

TLE from 3 days ago
0 ATLAS 5 CENTAUR DEB
1 44667U 18079AD  25126.42833360 -.00000092  00000-0  00000+0 0  9998
2 44667  13.0606  52.1877 4649955 285.9404  28.9874  1.90832094 41301
Epoch: 2025-05-06T10:16Z
Definitive object data (Epoch: 2025-05-06T10:16:48.023Z)
Latitude
0.00004°
Longitude
33.39845°
Altitude
12,702.233 km
Speed
5.221 km/s
True Right ascension
03h 28m 30s
True Declination
0° 00' 00"
Sunlit
Object was in daylight at TLE epoch
Visualization TLE readout
Latitude
12.50556°
Longitude
140.37054°
Altitude
33,820.655 km
Speed
2.305 km/s
Apparent Right ascension
10h 10m 05s
Apparent Declination
7° 06' 59"
Sunlit
Object is in daylight
Visualization observer readout
Local Sidereal Time
14:36:25
Azimuth
260.155° W
Elevation
22.455°
Doppler factor
1
Orbital elements
Apogee altitude
33,847.65 km
Perigee altitude
8,311.995 km
Semi-major axis
27,457.96 km
Eccentricity
0.4649955
Inclination
13.0606°
RAAN
52.1877°
Arg. of periapsis
285.9404°
True anomaly
74.21492°
Mean anomaly
28.9874°
Eccentric anomaly
49.13602°
Mean motion
0.47702 °/min
BSTAR
Unknown
Orbital period
754.68 mins
Loading maneuver chart data...
Loading SW <> Apogee altitude chart data...

ATLAS 5 CENTAUR DEB Visibility forecast

Observer location: undefined°, undefined°

Span
Click to sort rows by Start time (UTC) header in descending order
Start Az.
Max El. time (UTC)
Max El. Az.
Max El.
End time (UTC)
End Az.
368 mins2025-05-09 06:27:34.831Z260.138° W2025-05-09 06:27:34.831Z260.138° W20.899°2025-05-09 12:35:34.831Z161.903° S
87 mins2025-05-10 05:00:34.831Z269.36° W2025-05-10 05:45:34.831Z269.919° W10.872°2025-05-10 06:27:34.831Z270.769° WNW
|